Location: Misciano
(43.5000°N, 11.9500°E)
Time: 05:48:17
(UTC+00:00)

Cosmos 921 Rocket - Pass Details

Date: 13 August 2020
Orbit: 572 x 631 km, 75.8° (Epoch: 23 September)

Event Time Altitude Azimuth Distance (km) Brightness Sun altitude
Rises 19:12:14 0° 352° (N) 2,805 7.0 -9.7°
Reaches altitude 10° 19:14:43 10° 4° (N) 1,895 5.9 -10.1°
Maximum altitude 19:18:20 27° 64° (ENE) 1,111 4.1 -10.6°
Enters shadow 19:20:53 16° 114° (ESE) 1,546 4.5 -11.0°
